Content
SEND FEEDBACK

Daily
Averages
Monthly
Summary
United States of America

NEW YORK - CENTRAL PARK, NEW YORK


Home > North America > United States > New York
Elevation: 14 feet     Latitude: 40 47N     Longitude: 073 58W

WEATHER
 
SELECT A DAY
Number of Records: 152,235;   Date Range: 11/1/95 - 11/25/14
 
SHARE

PRINT THIS DATA

[ ← Previous Day ]
WEATHER ALMANAC - APRIL 22, 2013
[ Next Day → ]
[ °C ]   °F
Weather ElementAverageHighLow
Temperature47.9 °F54 °F (2:51 pm)42.1 °F (3:51 am)
Dewpoint30.6 °F34 °F (10:51 pm)27 °F (1:51 am)
Humidity52 %67 % (5:51 am)39 % (6:51 pm)
Barometer30.58 in30.65 in (8:51 am)30.49 in (11:51 pm)
Wind Speed9.7 mph19.6 mph (2:51 pm)
Wind Gust25.3 mph (12:51 pm)
Weather ElementAverage
Visibility10 mi
Wind DirectionENE (73 °)

Weather ElementTotal
Precipitation---
Heating Degree Days17 (Base 65)
Averaged from 23 records on April 22, 2013
WEATHER CONDITIONS BREAKOUT
WIND DIRECTION BREAKOUT
Weather ElementAverageHighLow
Temperature47.9 °F54 °F (2:51 pm)42.1 °F (3:51 am)
Dewpoint30.6 °F34 °F (10:51 pm)27 °F (1:51 am)
Humidity52 %67 % (5:51 am)39 % (6:51 pm)
Barometer30.58 in30.65 in (8:51 am)30.49 in (11:51 pm)
Wind Speed9.7 mph19.6 mph (2:51 pm)
Wind Gust25.3 mph (12:51 pm)
Weather ElementAverage
Visibility10 mi
Wind DirectionENE (73 °)

Weather ElementTotal
Precipitation---
Heating Degree Days17 (Base 65)
Averaged from 23 records on April 22, 2013
WEATHER CONDITIONS BREAKOUT
WIND DIRECTION BREAKOUT
WEATHER BY HOUR - APRIL 22, 2013
[ °C ]   °F
Local TimeTemperatureDewpointHumidityBarometerVisibilityWind DirectionWind SpeedGust SpeedPrecipitationEventsConditions
1:51 AM44.1 °F27.0 °F51 %30.62 in10.0 miSSE (150°)6.9 mphClear
2:51 AM43.0 °F28.0 °F56 %30.63 in10.0 miSSE (160°)5.8 mphClear
3:51 AM42.1 °F28.9 °F60 %30.62 in10.0 miVariable3.5 mphClear
4:51 AM42.1 °F30.9 °F65 %30.63 in10.0 miENE (60°)8.1 mphClear
5:51 AM42.1 °F32.0 °F67 %30.63 in10.0 miEast (100°)5.8 mphClear
6:51 AM43.0 °F30.9 °F62 %30.64 in10.0 miVariable5.8 mphClear
7:51 AM44.1 °F33.1 °F65 %30.63 in10.0 miENE (60°)10.4 mph20.7 mphClear
8:51 AM46.0 °F32.0 °F58 %30.65 in10.0 miENE (60°)10.4 mph19.6 mphPartly Cloudy
9:51 AM48.9 °F28.0 °F44 %30.65 in10.0 miSE (130°)12.7 mph20.7 mphScattered Clouds
10:51 AM50.0 °F32.0 °F50 %30.65 in10.0 miENE (70°)10.4 mph17.3 mphClear
11:51 AM51.1 °F32.0 °F48 %30.64 in10.0 miENE (70°)15.0 mph20.7 mphPartly Cloudy
12:51 PM52.0 °F32.0 °F47 %30.62 in10.0 miENE (60°)16.1 mph25.3 mphPartly Cloudy
1:51 PM52.0 °F33.1 °F49 %30.59 in10.0 miEast (90°)12.7 mph21.9 mphPartly Cloudy
2:51 PM54.0 °F32.0 °F43 %30.58 in10.0 miENE (60°)19.6 mph25.3 mphScattered Clouds
3:51 PM53.1 °F30.0 °F41 %30.55 in10.0 miEast (90°)12.7 mph20.7 mphMostly Cloudy
4:51 PM54.0 °F30.9 °F41 %30.53 in10.0 miESE (110°)11.5 mphPartly Cloudy
5:51 PM53.1 °F28.9 °F40 %30.52 in10.0 miVariable4.6 mphClear
6:51 PM51.1 °F27.0 °F39 %30.52 in10.0 miEast (100°)8.1 mph19.6 mphClear
7:51 PM48.9 °F28.0 °F44 %30.51 in10.0 miVariable5.8 mphClear
8:51 PM48.0 °F28.9 °F48 %30.51 in10.0 miEast (100°)8.1 mph16.1 mphPartly Cloudy
9:51 PM46.9 °F32.0 °F56 %30.52 in10.0 miENE (70°)8.1 mph20.7 mphScattered Clouds
10:51 PM46.0 °F34.0 °F63 %30.51 in10.0 miENE (70°)10.4 mphOvercast
11:51 PM45.0 °F32.0 °F60 %30.49 in10.0 miENE (70°)11.5 mphOvercast
Hourly data recorded from KNYC, located miles away from New York - Central Park, New York







STORIES FROM OUR PARTNERS